Location: *
(32.8667°N, 13.1833°E)
Time: 01:34:33
(UTC+00:00)

Cosmos 1627 Rocket - Pass Details

Date: 18 July 2019
Orbit: 951 x 1004 km, 82.9° (Epoch: 19 August)

Event Time Altitude Azimuth Distance (km) Brightness Sun altitude
Rises 21:13:51 0° 353° (N) 3,639 8.4 -29.1°
Reaches altitude 10° 21:16:20 10° 354° (N) 2,695 7.6 -29.3°
Enters shadow 21:22:25 87° 322° (NW) 973 4.4 -30.0°
